Location: ?????
(55.6500°N, 37.2500°E)
Time: 03:34:17
(UTC+00:00)

USA 59 Rocket - Pass Details

Date: 19 May 2025
Orbit: 373 x 1696 km, 63.3° (Epoch: 15 June)

Event Time Altitude Azimuth Distance (km) Brightness Sun altitude
Exits shadow 20:24:15 26° 152° (SSE) 831 0.2 -13.2°
Maximum altitude 20:24:50 28° 131° (SE) 777 0.1 -13.2°
Drops below altitude 10° 20:27:26 10° 69° (ENE) 1,393 2.0 -13.3°
Sets 20:29:33 0° 57° (ENE) 2,253 3.2 -13.4°
